Погода в Гафсе

Тунис     34°25′23″N   8°47′08″E
темп.,
°C
ветер,
м/с
пор.,
м/с
влажн.,
%
обл.,
%
осадки,
мм/ч
давл.,
гПа
погр.,
м
10 августа, ср
ср1001:00+27всв35590 0.0 1015263
04:00+25св23680 0.0 101588
07:00+25всв22640 0.0 1016251
10:00+29юв11430 0.0 10161053
13:00+33юз24292 0.0 10152643
16:00+36ююз55238 0.0 10122621
19:00+35юз452421 0.0 1011306
22:00+29в45500 0.0 1014258
11 августа, чт
чт1101:00+26всв46650 0.0 1015531
04:00+25св23670 0.0 1015144
07:00+25св34610 0.0 1015264
10:00+29в22390 0.0 1015970
13:00+33ссз13270 0.0 10142393
16:00+36вюв36180 0.0 10112713
19:00+35св33160 0.0 101068
22:00+28в56510 0.0 1013400
12 августа, пт
пт1201:00+26всв44640 0.0 1014408
04:00+25св23660 0.0 1013122
07:00+25всв23630 0.0 1014232
10:00+30св22430 0.0 10141072
13:00+35св27163 0.0 10123278
16:00+38ссв810123 0.0 10113982
19:00+35ссв69144 0.0 1011234
22:00+27ююв12540 0.0 1014105
13 августа, сб
сб1301:00+26св34620 0.0 1015144
04:00+24св22690 0.0 101519
07:00+25всв11660 0.0 1016112
10:00+30ююз21380 0.0 1016795
13:00+35ююз24220 0.0 10152481
16:00+38ююз56170 0.0 10122355
19:00+35юз68190 0.0 1012185
22:00+32юз33240 0.0 101437
14 августа, вс
вс1401:00+30зюз33260 0.0 101314
04:00+29зюз23280 0.0 101311
07:00+30зсз22260 0.0 101328
10:00+36зюз34180 0.0 10141007
13:00+40юз88130 0.0 10113067
16:00+41юз991255 0.0 10092751
19:00+39зюз691395 0.0 1009227
22:00+32вюв673422 0.0 1011216